User: anonymous   Login
Location: Redwood Loop Observatory
(43.9900°N, 124.0900°W)
Time: 07:18:40
(UTC-08:00)
Language:

UWE-3 - Orbit

View from above orbital plane
View from above orbital plane
View from above satellite
View from above satellite

Ground track
Ground track

The orbit data is extracted from the following two-line orbital elements,

1 39446U 13066AG  19340.51478417  .00000152  00000-0  26859-4 0  9998
2 39446  97.5869 336.1367 0068979 221.7479 137.8459 14.78460632324504
Epoch (UTC): 06 December 2019 12:21:17
Eccentricity: 0.0068979
inclination: 97.5869°
perigee height: 586 km
apogee height: 682 km
right ascension of ascending node: 336.1367°
argument of perigee: 221.7479°
revolutions per day: 14.78460632
mean anomaly at epoch: 137.8459°
orbit number at epoch: 32450

The dashed part of the orbit path shows where the satellite is in the earth's shadow,  

DLR